False Pass, AK

2:11 AM HDT on June 27, 2017 (GMT -0900)
False Pass

Weather History for PAKF - March, 2013

Change the Weather History Date:

Sunday, March 3, 2013

  Actual Average (PACD) Record (PACD)
Temperature  
Mean Temperature 34 °F -  
Max Temperature 39 °F 34 °F 44 °F (1963)
Min Temperature 28 °F 23 °F -1 °F (1956)
Degree Days  
Heating Degree Days 32    
Moisture  
Dew Point 30 °F    
Average Humidity 83    
Maximum Humidity 100    
Minimum Humidity 67    
Precipitation  
Precipitation 0.00 in - - ()
Sea Level Pressure  
Sea Level Pressure 29.91 in    
Wind  
Wind Speed 15 mph (WNW)    
Max Wind Speed 25 mph    
Max Gust Speed 37 mph    
Visibility 5 miles    
Events Rain , Snow    
Averages and records for this station are not official NWS values.
T = Trace of Precipitation, MM = Missing Value Source: NWS Daily Summary

Daily Weather History Graph

Daily Weather History Graph

Search for Another Location

Airport or City:

Trip Planner

Search our weather history database for the weather conditions in past years. The results will help you decide how hot, cold, wet, or windy it might be!

Date:

Astronomy

Mar. 03, 2013 Rise Set
Actual Time 7:37 AM HST 6:34 PM HST
Civil Twilight 7:01 AM HST 7:10 PM HST
Nautical Twilight 6:19 AM HST 7:52 PM HST
Astronomical Twilight 5:37 AM HST 8:35 PM HST
Moon 1:30 AM HST (3/3) 9:56 AM HST (3/3)
Length of Visible Light 12h 09m
Length of Day
10h 57m
Waning Gibbous, 61% of the Moon is Illuminated
Mar 3
Waning Gibbous
Mar 4
Last Quarter
Mar 11
New
Mar 19
First Quarter
Mar 27
Full

Hourly Weather History & Observations

Time (HST) Temp. Windchill Dew Point Humidity Pressure Visibility Wind Dir Wind Speed Gust Speed Precip Events Conditions
1:01 AM 37.9 °F 27.9 °F 28.9 °F 70% 29.83 in 10.0 mi WSW 19.6 mph 31.1 mph N/A   Clear
2:01 AM 37.0 °F 26.4 °F 30.0 °F 76% 29.87 in 10.0 mi West 20.7 mph 31.1 mph N/A   Partly Cloudy
3:01 AM 36.0 °F 25.3 °F 30.0 °F 79% 29.90 in 10.0 mi West 19.6 mph 27.6 mph N/A   Partly Cloudy
4:01 AM 37.0 °F 25.4 °F 28.9 °F 73% 29.90 in 10.0 mi West 25.3 mph 35.7 mph N/A   Partly Cloudy
5:01 AM 36.0 °F 25.0 °F 28.9 °F 76% 29.94 in 9.0 mi West 20.7 mph 36.8 mph N/A   Clear
5:45 AM 35.6 °F 25.2 °F 28.4 °F 75% 29.69 in 5.0 mi WSW 18.4 mph 27.6 mph 0.00 in Snow Light Snow
5:53 AM 35.6 °F 25.5 °F 28.4 °F 75% 29.69 in 4.0 mi WSW 17.3 mph 27.6 mph 0.00 in Snow Light Snow
6:01 AM 35.6 °F 27.1 °F 28.4 °F 75% 29.70 in 3.0 mi West 12.7 mph 26.5 mph 0.00 in Snow Light Snow
6:07 AM 35.1 °F 25.2 °F 28.9 °F 78% 29.99 in 4.0 mi West 16.1 mph 26.5 mph 0.00 in Snow Light Snow
6:28 AM 35.6 °F 27.1 °F 28.4 °F 75% 29.71 in 5.0 mi West 12.7 mph 31.1 mph 0.00 in Snow Light Snow
6:48 AM 35.6 °F 25.9 °F 28.4 °F 75% 29.72 in 8.0 mi West 16.1 mph 26.5 mph 0.00 in Snow Light Snow
7:01 AM 35.1 °F 25.2 °F 28.9 °F 78% 30.01 in 5.0 mi West 16.1 mph 23.0 mph 0.00 in Snow Light Snow
7:42 AM 35.6 °F 26.2 °F 28.4 °F 75% 29.76 in 2.5 mi West 15.0 mph 29.9 mph 0.00 in Snow Light Snow
7:52 AM 35.6 °F 27.5 °F 28.4 °F 75% 29.76 in 4.0 mi West 11.5 mph 21.9 mph 0.00 in Snow Light Snow
8:01 AM 34.0 °F 25.0 °F 28.9 °F 82% 30.05 in 3.0 mi WNW 12.7 mph 21.9 mph 0.00 in Snow Light Snow
8:03 AM 33.8 °F 23.9 °F 28.4 °F 81% 29.77 in 2.5 mi West 15.0 mph 21.9 mph 0.00 in Snow Light Snow
8:14 AM 33.8 °F 22.2 °F 28.4 °F 81% 29.77 in 1.8 mi WNW 20.7 mph 24.2 mph 0.00 in Snow Light Snow
9:01 AM 34.0 °F 23.8 °F 30.0 °F 85% 30.08 in 1.2 mi West 16.1 mph 26.5 mph 0.00 in Snow Light Snow
9:09 AM 33.8 °F 25.3 °F 30.2 °F 87% 29.79 in 1.0 mi West 11.5 mph 24.2 mph 0.00 in Snow Light Snow
9:16 AM 33.8 °F 25.3 °F 30.2 °F 87% 29.79 in 1.5 mi WNW 11.5 mph 23.0 mph 0.00 in Snow Light Snow
9:26 AM 33.8 °F 23.2 °F 30.2 °F 87% 29.80 in 1.5 mi West 17.3 mph 32.2 mph 0.00 in Snow Light Snow
10:15 AM 33.8 °F 23.2 °F 30.2 °F 87% 29.81 in 1.5 mi West 17.3 mph 27.6 mph 0.00 in Snow Light Snow
10:49 AM 33.8 °F 22.8 °F 30.2 °F 87% 29.83 in 1.0 mi WNW 18.4 mph 23.0 mph 0.00 in Snow Light Snow
11:01 AM 33.8 °F 23.2 °F 30.2 °F 87% 29.83 in 1.2 mi West 17.3 mph 25.3 mph 0.00 in Snow Light Snow
11:07 AM 34.0 °F 22.4 °F 30.9 °F 89% 30.12 in 1.2 mi West 20.7 mph 26.5 mph 0.00 in Snow Light Snow
12:01 PM 35.6 °F 28.6 °F 30.2 °F 81% 29.85 in 1.0 mi West 9.2 mph 18.4 mph 0.00 in Snow Light Snow
12:11 PM 35.6 °F 27.1 °F 30.2 °F 81% 29.86 in 1.5 mi WNW 12.7 mph 19.6 mph 0.00 in Snow Light Snow
12:30 PM 35.6 °F 26.6 °F 30.2 °F 81% 29.85 in 1.5 mi West 13.8 mph 20.7 mph 0.00 in Snow Light Snow
12:46 PM 36.0 °F 26.7 °F 30.0 °F 79% 30.14 in 1.5 mi WNW 15.0 mph 23.0 mph 0.00 in Snow Light Snow
1:01 PM 35.6 °F 26.2 °F 30.2 °F 81% 29.86 in 1.5 mi WNW 15.0 mph 19.6 mph 0.00 in Snow Light Snow
1:10 PM 35.6 °F 26.2 °F 30.2 °F 81% 29.86 in 4.0 mi NW 15.0 mph - 0.00 in Snow Light Snow
1:32 PM 37.4 °F 30.8 °F 28.4 °F 70% 29.86 in 10.0 mi NW 9.2 mph 19.6 mph 0.00 in Rain Light Rain
2:01 PM 37.9 °F 30.9 °F 28.9 °F 70% 30.15 in 10.0 mi NW 10.4 mph 18.4 mph 0.00 in   Overcast
2:20 PM 37.4 °F 28.9 °F 28.4 °F 70% 29.87 in 10.0 mi NW 13.8 mph - N/A   Overcast
3:01 PM 37.9 °F 29.2 °F 28.9 °F 70% 30.17 in 10.0 mi WNW 15.0 mph - N/A   Mostly Cloudy
4:01 PM 39.0 °F 31.8 °F 28.9 °F 67% 30.17 in 10.0 mi West 11.5 mph 19.6 mph N/A   Partly Cloudy
5:01 PM 37.0 °F 28.1 °F 30.0 °F 76% 30.19 in 10.0 mi WNW 15.0 mph - N/A   Clear
6:01 PM 35.6 °F 30.7 °F 30.2 °F 81% 29.90 in 10.0 mi NW 5.8 mph - N/A   Mostly Cloudy
6:33 PM 33.8 °F 26.4 °F 30.2 °F 87% 29.91 in 10.0 mi North 9.2 mph - N/A   Partly Cloudy
7:01 PM 33.8 °F 24.8 °F 32.0 °F 93% 29.93 in 10.0 mi North 12.7 mph - N/A   Mostly Cloudy
7:14 PM 33.8 °F 25.3 °F 30.2 °F 87% 29.93 in 10.0 mi North 11.5 mph - N/A   Scattered Clouds
7:54 PM 33.8 °F 27.0 °F 30.2 °F 87% 29.93 in 10.0 mi NNW 8.1 mph - N/A   Scattered Clouds
8:01 PM 33.1 °F 27.7 °F 30.9 °F 92% 30.22 in 4.0 mi WNW 5.8 mph - N/A   Scattered Clouds
8:10 PM 33.8 °F 29.6 °F 30.2 °F 87% 29.93 in 4.0 mi NW 4.6 mph - N/A   Mostly Cloudy
8:19 PM 32.0 °F 28.7 °F 30.2 °F 93% 29.93 in 2.0 mi WNW 3.5 mph - N/A   Overcast
8:27 PM 32.0 °F 28.7 °F 30.2 °F 93% 29.93 in 1.8 mi NW 3.5 mph - N/A   Overcast
8:35 PM 32.0 °F - 30.2 °F 93% 29.93 in 2.5 mi Calm Calm - N/A   Overcast
8:52 PM 32.0 °F - 30.2 °F 93% 29.93 in 3.0 mi Calm Calm - N/A   Overcast
9:01 PM 32.0 °F - 30.2 °F 93% 29.94 in 2.0 mi Calm Calm - N/A   Overcast
9:10 PM 32.0 °F - 30.2 °F 93% 29.94 in 1.2 mi Calm Calm - N/A   Overcast
10:01 PM 30.2 °F 26.7 °F 28.4 °F 93% 29.93 in 0.8 mi SSW 3.5 mph - N/A   Overcast
10:16 PM 28.4 °F 24.6 °F 28.4 °F 100% 29.93 in 1.2 mi Variable 3.5 mph - N/A   Overcast
10:21 PM 28.4 °F - 28.4 °F 100% 29.92 in 3.0 mi Calm Calm - N/A   Overcast
10:53 PM 33.8 °F 25.8 °F 32.0 °F 93% 29.93 in 10.0 mi SSE 10.4 mph - N/A   Overcast
11:30 PM 35.6 °F 27.1 °F 32.0 °F 87% 29.93 in 10.0 mi SSE 12.7 mph - N/A   Partly Cloudy
11:48 PM 35.6 °F 26.6 °F 30.2 °F 81% 29.93 in 10.0 mi SE 13.8 mph 19.6 mph N/A   Mostly Cloudy